Location: Asheville, NC
(35.6000°N, 82.5500°W)
Time: 08:52:21
(UTC-05:00)

Vanguard 3 - Pass Details

Date: 11 February 2018
Orbit: 508 x 3264 km, 33.3° (Epoch: 19 February)

Event Time Altitude Azimuth Distance (km) Brightness Sun altitude
Rises 01:08:39 0° 273° (W) 4,199 - -67.7°
Reaches altitude 10° 01:11:29 10° 262° (W) 3,562 - -67.6°
Maximum altitude 01:19:33 30° 206° (SSW) 3,111 - -67.0°
Drops below altitude 10° 01:31:54 10° 153° (SSE) 5,505 - -65.9°
Sets 01:37:43 0° 145° (SE) 6,866 - -65.3°
Exits shadow 01:37:43 - 145° (SE) 6,866 11.8 -65.3°
